| time (UTC) | temp C | wind direction | speed KPH | gust KPH | rain 1hr cm | rain 24hr cm | rain mn cm | humidity % | barometer mb |
| 20260505101518 | 16 | 201 | 0.0 | 6.4 | 0.00 | 0.00 | 0.00 | 73 | 1009.0 |
| 20260505100017 | 17 | 201 | 1.6 | 4.8 | 0.00 | 0.00 | 0.00 | 66 | 1008.8 |
| 20260505094517 | 17 | 201 | 1.6 | 4.8 | 0.00 | 0.00 | 0.00 | 66 | 1008.3 |
| 20260505093010 | 17 | 202 | 1.6 | 6.4 | 0.00 | 0.00 | 0.00 | 66 | 1007.7 |
| 20260505091510 | 17 | 201 | 3.2 | 6.4 | 0.00 | 0.00 | 0.00 | 65 | 1007.3 |
| 20260505090006 | 17 | 201 | 1.6 | 6.4 | 0.00 | 0.00 | 0.00 | 64 | 1006.9 |
| 20260505084508 | 17 | 202 | 1.6 | 6.4 | 0.00 | 0.00 | 0.00 | 64 | 1006.7 |
| 20260505083010 | 17 | 201 | 1.6 | 4.8 | 0.00 | 0.00 | 0.00 | 64 | 1006.5 |
| 20260505081504 | 17 | 202 | 1.6 | 8.0 | 0.00 | 0.00 | 0.00 | 64 | 1006.4 |
| 20260505080011 | 17 | 202 | 1.6 | 6.4 | 0.00 | 0.00 | 0.00 | 63 | 1006.4 |
| 20260505074502 | 17 | 201 | 0.0 | 6.4 | 0.00 | 0.00 | 0.00 | 64 | 1006.3 |
| 20260505073003 | 17 | 201 | 1.6 | 4.8 | 0.00 | 0.00 | 0.00 | 65 | 1006.3 |
| 20260505071503 | 17 | 202 | 0.0 | 3.2 | 0.00 | 0.00 | 0.00 | 65 | 1006.2 |
| 20260505064610 | 17 | 201 | 0.0 | 3.2 | 0.00 | 0.00 | 0.00 | 65 | 1006.5 |
| 20260505063100 | 17 | 201 | 0.0 | 4.8 | 0.00 | 0.00 | 0.00 | 65 | 1006.4 |
| 20260505061558 | 17 | 201 | 0.0 | 4.8 | 0.00 | 0.00 | 0.00 | 65 | 1006.4 |
| 20260505054555 | 17 | 202 | 1.6 | 4.8 | 0.00 | 0.00 | 0.00 | 64 | 1006.1 |
| 20260505053053 | 17 | 201 | 1.6 | 6.4 | 0.00 | 0.00 | 0.00 | 64 | 1006.1 |
| 20260505051551 | 17 | 201 | 1.6 | 4.8 | 0.00 | 0.00 | 0.00 | 64 | 1006.1 |
| 20260505041553 | 17 | 201 | 0.0 | 1.6 | 0.00 | 0.00 | 0.00 | 64 | 1006.7 |
| 20260505040047 | 18 | 202 | 0.0 | 3.2 | 0.00 | 0.00 | 0.00 | 63 | 1006.8 |
| 20260505034540 | 18 | 201 | 0.0 | 3.2 | 0.00 | 0.00 | 0.00 | 63 | 1006.7 |
| 20260505033040 | 18 | 201 | 0.0 | 4.8 | 0.00 | 0.00 | 0.00 | 62 | 1006.6 |
| 20260505031539 | 18 | 202 | 0.0 | 3.2 | 0.00 | 0.00 | 0.00 | 63 | 1006.4 |
| 20260505030046 | 18 | 201 | 0.0 | 1.6 | 0.00 | 0.00 | 0.00 | 63 | 1006.4 |
| 20260505024538 | 18 | 201 | 0.0 | 1.6 | 0.00 | 0.00 | 0.00 | 63 | 1006.3 |
| 20260505023036 | 18 | 201 | 0.0 | 1.6 | 0.00 | 0.00 | 0.00 | 62 | 1006.1 |
| 20260505021536 | 18 | 202 | 0.0 | 3.2 | 0.00 | 0.00 | 0.00 | 62 | 1005.8 |
| 20260505020040 | 19 | 201 | 0.0 | 3.2 | 0.00 | 0.00 | 0.00 | 61 | 1005.4 |
| 20260505014553 | 19 | 201 | 0.0 | 1.6 | 0.00 | 0.00 | 0.00 | 60 | 1005.1 |
| 20260505013039 | 20 | 201 | 0.0 | 1.6 | 0.00 | 0.00 | 0.00 | 58 | 1005.2 |
| 20260505011539 | 20 | 201 | 0.0 | 4.8 | 0.00 | 0.00 | 0.00 | 57 | 1005.1 |
| 20260505010030 | 20 | 201 | 1.6 | 6.4 | 0.00 | 0.00 | 0.00 | 56 | 1005.0 |
| 20260505004540 | 21 | 201 | 0.0 | 1.6 | 0.00 | 0.00 | 0.00 | 55 | 1005.1 |
| 20260505003049 | 21 | 202 | 0.0 | 1.6 | 0.00 | 0.00 | 0.00 | 54 | 1005.1 |
| 20260505001526 | 22 | 201 | 0.0 | 4.8 | 0.00 | 0.00 | 0.00 | 52 | 1005.3 |
| 20260505000030 | 22 | 202 | 0.0 | 9.7 | 0.00 | 0.00 | 0.00 | 51 | 1005.4 |
| 20260504234524 | 22 | 201 | 3.2 | 6.4 | 0.00 | 0.00 | 0.00 | 52 | 1005.4 |
| 20260504233023 | 22 | 201 | 0.0 | 4.8 | 0.00 | 0.00 | 0.00 | 52 | 1005.5 |
| 20260504231521 | 23 | 201 | 0.0 | 6.4 | 0.00 | 0.00 | 0.00 | 51 | 1005.8 |
| 20260504230019 | 23 | 201 | 0.0 | 8.0 | 0.00 | 0.00 | 0.00 | 51 | 1006.1 |
| 20260504224519 | 23 | 201 | 1.6 | 6.4 | 0.00 | 0.00 | 0.00 | 50 | 1006.2 |
| 20260504223018 | 23 | 201 | 3.2 | 12.9 | 0.00 | 0.00 | 0.00 | 47 | 1006.4 |
| 20260504221515 | 23 | 201 | 3.2 | 8.0 | 0.00 | 0.00 | 0.00 | 48 | 1006.5 |
| 20260504220013 | 23 | 201 | 3.2 | 9.7 | 0.00 | 0.00 | 0.00 | 47 | 1006.5 |
| 20260504214516 | 23 | 201 | 1.6 | 9.7 | 0.00 | 0.00 | 0.00 | 47 | 1006.7 |
| 20260504213021 | 24 | 201 | 3.2 | 16.1 | 0.00 | 0.00 | 0.00 | 45 | 1006.7 |
| 20260504211525 | 24 | 201 | 3.2 | 9.7 | 0.00 | 0.00 | 0.00 | 45 | 1006.9 |
| 20260504210008 | 23 | 202 | 0.0 | 8.0 | 0.00 | 0.00 | 0.00 | 50 | 1006.8 |
| 20260504204506 | 24 | 201 | 0.0 | 6.4 | 0.00 | 0.00 | 0.00 | 49 | 1006.8 |
| 20260504203004 | 24 | 201 | 0.0 | 3.2 | 0.00 | 0.00 | 0.00 | 51 | 1006.9 |
| 20260504201502 | 24 | 201 | 1.6 | 8.0 | 0.00 | 0.00 | 0.00 | 51 | 1007.0 |
| 20260504200100 | 24 | 201 | 1.6 | 6.4 | 0.00 | 0.00 | 0.00 | 53 | 1007.4 |
| 20260504194600 | 24 | 202 | 3.2 | 11.3 | 0.00 | 0.00 | 0.00 | 50 | 1007.6 |
| 20260504193107 | 24 | 201 | 1.6 | 9.7 | 0.00 | 0.00 | 0.00 | 51 | 1007.8 |
| 20260504191608 | 24 | 201 | 0.0 | 8.0 | 0.00 | 0.00 | 0.00 | 56 | 1008.0 |
| 20260504190104 | 23 | 202 | 0.0 | 6.4 | 0.00 | 0.00 | 0.00 | 53 | 1008.3 |
| 20260504184552 | 23 | 201 | 3.2 | 8.0 | 0.00 | 0.00 | 0.00 | 52 | 1008.4 |
| 20260504183047 | 23 | 201 | 3.2 | 8.0 | 0.00 | 0.00 | 0.00 | 54 | 1008.4 |
| 20260504181548 | 23 | 202 | 3.2 | 9.7 | 0.00 | 0.00 | 0.00 | 53 | 1008.2 |
| 20260504180042 | 22 | 202 | 0.0 | 9.7 | 0.00 | 0.00 | 0.00 | 58 | 1008.3 |
| 20260504174544 | 22 | 201 | 3.2 | 11.3 | 0.00 | 0.00 | 0.00 | 58 | 1008.3 |
| 20260504173037 | 22 | 201 | 1.6 | 8.0 | 0.00 | 0.00 | 0.00 | 60 | 1008.4 |
| 20260504171534 | 21 | 202 | 1.6 | 6.4 | 0.00 | 0.00 | 0.00 | 61 | 1008.6 |